STARLINK-1951 (47553 NORAD) Tracking and Keplerian Element Data

This shows tracking and keplerian element data for the satellite.

Feedback or suggestion? Click here.




ElementValue
Catalog47553
NameSTARLINK-1951
Epoch Orbit177
Epoch Day101.91668981
Epoch Year2021
RAAN157.5322
Inclination53.052
Eccentricity0.0003655
Argument of Perigee20.2401
Mean Anonmoly230.4054
Mean Motion15.62808287
Decay Rate0.00030113
L11 47553U 21009F 21101.91668981 .00030113 00000-0 33272-3 0 9997
L22 47553 53.0520 157.5322 0003655 20.2401 230.4054 15.62808287 1774

Live tracking and technical data element details for STARLINK-1951 (NORAD 47553). STARLINK-1951 can be tracked NOW for your location showing map with azimuth and elevation plus other details from your city location.

Track the satellite on the map from your city or location and see movement details for azimuth, elevation, latitude, longitude, range, height, and movement on the map or in text.







IsCatalogInMostPopularTable: catalog: 47553, numindb: 14
Update: records affected: 1



GetName: 47553 STARLINK-1951

Hit Count: updated at: Tue, 13 Apr 2021 04:14:58 GMT